Regional Weather Roundup
Issued by NWS

Home | Current Version | Previous Version | Graphics & Text | Print | Product List | Glossary On
Versions: 1 2 3 4 5 6 7 8 9 10 11 12 13 14 15 16 17 18 19 20 21 22 23 24 25 26 27 28 29 30 31
000
ASUS45 KBOU 291607
RWRCO

WEATHER ROUNDUP FOR COLORADO
NATIONAL WEATHER SERVICE DENVER/BOULDER CO
1000 AM MDT WED OCT 29 2014

NOTE: "FAIR" INDICATES FEW OR NO CLOUDS BELOW 12000 FEET WITH NO
SIGNIFICANT WEATHER AND/OR OBSTRUCTIONS TO VISIBILITY.

COZ001>005-013-030-031-291700-
...NORTHWEST COLORADO...

CITY           SKY/WX    TMP DP  RH WIND       PRES   REMARKS
CRAIG          SUNNY     34  25  69 SW3       30.37
HAYDEN         SUNNY     36  19  51 E6        30.36R
MEEKER         SUNNY     38  23  55 S3        30.36S
MOUNT WERNER   NOT AVBL
STEAMBOAT SPGS SUNNY     31  23  70 CALM      30.36S
WALDEN         SUNNY     37  19  48 E6        30.32F
$$

COZ006>008-011-291700-
...WEST CENTRAL VALLEYS...

CITY           SKY/WX    TMP DP  RH WIND       PRES   REMARKS
GRAND JUNCTION SUNNY     43  16  33 SE6       30.35S
MONTROSE       SUNNY     43  15  32 CALM      30.39R
EAGLE          SUNNY     30  16  55 CALM      30.43F
RIFLE          SUNNY     37  14  38 CALM      30.39S
DELTA          SUNNY     43  16  33 E3        30.38S
NUCLA          SUNNY     41  12  30 CALM      30.41S
$$

COZ017>023-064>068-291700-
...SOUTHWEST COLORADO...

CITY           SKY/WX    TMP DP  RH WIND       PRES   REMARKS
DURANGO        SUNNY     41  21  44 CALM      30.37S
CORTEZ         SUNNY     45  19  35 CALM      30.36R
PAGOSA SPRINGS SUNNY     44  14  30 CALM      30.39S
TELLURIDE      SUNNY     43  17  36 CALM      30.45S
WOLF CREEK PAS SUNNY     36   5  27 MISG      30.52R
$$

COZ009-010-012-014-032>034-037-058>063-291700-
...CENTRAL COLORADO...

CITY           SKY/WX    TMP DP  RH WIND       PRES   REMARKS
ASPEN          SUNNY     42  15  33 S5        30.38S
BUENA VISTA    SUNNY     42  11  27 SE5       30.35F
COPPER MTN     SUNNY     34  14  44 W15       30.48S WCI  24
BERTHOUD PASS  FAIR      25  21  86 NW28G37   30.44R WCI   8
COTTONWOOD PAS SUNNY     46   0  14 N3        30.40S
GUNNISON       SUNNY     27   7  43 CALM      30.48S
KREMMLING      SUNNY     30  23  74 CALM        N/A
LEADVILLE      SUNNY     41   8  25 NW9G21    30.41S
MONARCH PASS   SUNNY     30   1  29 W35G43    30.57R WCI  14
SALIDA         SUNNY     47   8  21 N12       30.40S
SUNLIGHT       SUNNY     37  18  44 CALM      30.48S
WILKERSON PASS NOT AVBL
$$

COZ069>075-291700-
...SAN LUIS VALLEY/SANGRE DE CRISTO MOUNTAINS...

CITY           SKY/WX    TMP DP  RH WIND       PRES   REMARKS
ALAMOSA        SUNNY     37  16  42 CALM      30.39S
LA VETA PASS   SUNNY     39  10  30 S13G21    30.40S
SAGUACHE       SUNNY     43   7  22 NW8       30.40S
$$

COZ035-036-038>040-291700-
...NORTHERN COLORADO FRONT RANGE...

CITY           SKY/WX    TMP DP  RH WIND       PRES   REMARKS
DENVER INTL AP MOSUNNY   56  20  24 S10       30.18F
DMNS CITY PARK   N/A     53  17  24 S7G13     30.18S
AURORA         MOSUNNY   55  19  24 S9        30.19F
FRONT RANGE AP MOSUNNY   59  21  23 S9        30.19
ERIE MUNI ARPT SUNNY     51  26  37 CALM      30.16F
BOULDER MUN AP SUNNY     52  23  32 CALM      30.16F
CENTENNIAL     MOSUNNY   58  16  19 SW10      30.19F
BROOMFIELD     MOSUNNY   57  23  26 SW5       30.18F
FORT COLLINS   SUNNY     45  28  53 N5        30.19R
LONGMONT       SUNNY     52  28  39 CALM      30.18S
$$

COZ041-046-047-076>085-087-088-291700-
...PIKES PEAK/PALMER DIVIDE AND SOUTHERN FOOTHILLS...

CITY           SKY/WX    TMP DP  RH WIND       PRES   REMARKS
COLO. SPRINGS  MOSUNNY   58  13  17 CALM      30.24R
A. F. ACADEMY  SUNNY     51  17  26 NW3       30.24S
ELLICOTT       NOT AVBL
FALCON         SUNNY     56  11  16 CALM      30.26S
FORT CARSON    SUNNY     55  19  25 N7        30.22R
LIMON          SUNNY     54  22  28 W3        30.21S
MONUMENT HILL  SUNNY     54  14  20 SW6       30.23F
TRINIDAD       SUNNY     53  19  26 W8        30.24F
$$

COZ042>045-048>051-090-091-291700-
...NORTHEAST COLORADO...

CITY           SKY/WX    TMP DP  RH WIND       PRES   REMARKS
GREELEY ARPT   SUNNY     39  25  56 CALM      30.20R
AKRON          SUNNY     48  25  40 W14       30.16F
BURLINGTON     SUNNY     58  28  32 W6        30.17F
WRAY           SUNNY     54  27  34 W12       30.15S
STERLING       SUNNY     43  30  61 SW10      30.16F
HOLYOKE        SUNNY     54  32  43 SW5       30.14F
FORT MORGAN    SUNNY     42  26  51 W10       30.18S
$$

COZ086-089-092>099-291700-
...SOUTHEAST COLORADO...

CITY           SKY/WX    TMP DP  RH WIND       PRES   REMARKS
PUEBLO         SUNNY     47  24  40 SW6       30.20F
LA JUNTA       SUNNY     50  25  37 W8        30.20F
LAMAR          SUNNY     50  28  42 W10       30.18F
SPRINGFIELD      N/A     58  29  33 NW3       30.20F
$$



USA.gov is the U.S. government's official web portal to all federal, state and local government web resources and services.